CAPE
0 0 0 0 0 0 0 0 0 0 0 0 0 0 0 0 0 0 0 0 0 0 0 0 0 0 0 0 0 0 0 0 0 0 0 0 0 0 1 0 0 0 0 0
0 0 0 0 0 0 0 0 0 0 0 0 0 0 0 0 0 0 0 0 0 0 0 0 0 0 0 0 0 0 0 0 0 0 0 0 0 1 0 0 0 0 0 0
0 0 0 0 0 0 0 0 0 0 0 0 0 0 0 0 0 0 0 0 0 0 0 0 0 0 0 0 0 0 0 0 0 0 0 0 0 1 0 0 1 1 1 0
0 0 0 0 0 0 0 0 0 0 0 0 0 0 0 0 0 0 0 0 0 0 0 0 0 0 0 0 0 0 0 0 0 0 0 3 1 1 1 1 3 2 4 0
0 0 0 0 0 0 0 0 0 0 0 0 0 0 0 0 0 0 0 0 0 0 0 0 0 0 0 0 0 0 0 0 0 0 4 0 1 1 2 3 1 1 1 0
0 0 0 0 0 0 0 0 0 0 0 0 0 0 0 0 0 0 0 0 0 0 0 0 0 0 0 0 0 0 0 0 0 0 0 0 1 1 1 2 1 2 2 1
0 0 0 0 0 0 0 0 0 0 0 0 0 0 0 0 0 0 0 0 0 0 0 0 0 0 0 0 0 0 0 0 0 0 1 1 2 1 1 1 2 2 3 0
0 0 0 0 0 0 0 0 0 0 0 0 0 0 0 0 0 0 0 0 0 0 0 0 0 0 0 0 0 0 0 0 0 0 0 0 1 0 1 1 2 2 2 0
0 0 0 0 0 0 0 0 0 0 0 0 0 0 0 0 0 0 0 0 0 0 0 0 0 0 0 0 0 0 0 0 0 0 0 0 0 0 1 1 2 2 4 8
0 0 0 0 0 0 0 0 0 0 0 0 0 0 0 0 0 0 0 0 0 0 0 0 0 0 0 0 0 0 0 0 0 0 1 0 0 1 1 1 2 2 2 2
0 0 0 0 0 0 0 0 0 0 0 0 0 0 0 0 0 0 0 0 0 0 0 0 0 0 0 0 0 0 0 0 1 1 1 1 0 1 1 1 1 3 2 1
0 0 0 0 0 0 0 0 0 0 0 0 0 0 0 0 0 0 0 0 0 0 0 0 0 0 0 0 0 0 0 0 0 1 2 1 1 0 1 1 1 2 4 1
0 0 0 0 0 0 0 0 0 0 0 0 0 0 0 0 0 0 0 0 0 0 0 0 0 0 0 0 0 0 0 0 0 0 1 2 1 1 2 1 2 3 0 0
0 0 0 0 0 0 0 0 0 0 0 0 0 0 0 0 0 0 0 0 0 0 0 0 0 0 0 0 0 0 0 0 0 0 0 0 1 1 1 1 1 1 1 0
0 0 0 0 0 0 0 0 0 0 0 0 0 0 0 0 0 0 0 0 0 0 0 0 0 0 0 0 0 0 0 0 0 0 0 0 0 0 1 1 1 1 1 2
0 0 0 0 0 0 0 0 0 0 0 0 0 0 0 0 0 0 0 0 0 0 0 0 0 0 0 0 0 0 0 0 0 0 0 0 0 0 0 1 1 2 2 2
0 0 0 0 0 0 0 0 0 0 0 0 0 0 0 0 0 0 0 0 0 0 0 0 0 0 0 0 0 0 0 0 0 0 0 0 0 0 0 0 0 2 2 3
0 0 0 0 0 0 0 0 0 0 0 0 0 0 0 0 0 0 0 0 0 0 0 0 0 0 0 0 0 0 0 0 0 0 0 0 0 0 0 0 0 0 0 0
0 0 0 0 0 0 0 0 0 0 0 0 0 0 0 0 0 0 0 0 0 0 0 0 0 0 0 0 0 0 0 0 0 0 0 0 0 0 0 0 0 0 0 0
0 0 0 0 0 0 0 0 0 0 0 0 0 0 0 0 0 0 0 0 0 0 0 0 0 0 0 0 0 0 0 0 0 0 0 0 0 0 0 0 0 0 0 0
0 0 0 0 0 0 0 0 0 0 0 0 0 0 0 0 0 0 0 0 0 0 0 0 0 0 0 0 0 0 0 0 0 0 0 0 0 0 0 0 0 0 0 0
0 0 0 1 0 0 0 0 0 0 0 0 0 0 0 0 0 0 0 0 0 0 0 0 0 0 0 0 0 0 0 0 0 0 0 0 0 0 0 0 0 0 0 0
0 0 0 0 0 0 0 0 0 0 0 0 0 0 0 0 0 0 0 0 0 0 0 0 0 0 0 0 0 0 0 0 0 0 0 0 0 0 0 0 0 0 0 0
0 0 0 0 0 0 0 0 0 0 0 0 0 0 0 0 0 0 0 0 0 0 0 0 0 0 0 0 0 0 0 0 0 0 0 0 0 0 0 0 0 0 0 0
0 0 0 0 0 0 0 0 0 0 0 0 0 0 0 0 0 0 0 0 0 0 0 0 0 0 0 0 0 0 0 0 0 0 0 0 0 0 0 0 0 0 0 0
0 0 0 0 0 0 0 0 0 0 0 0 0 0 0 0 0 0 0 0 0 0 0 0 0 0 0 0 0 0 0 0 0 0 0 0 0 0 0 0 0 0 0 1
CIN
0 0 0 0 0 0 0 0 0 0 0 0 0 0 0 0 0 0 0 0 0 0 0 0 0 0 0 0 0 0 0 0 0 0 0 0 0 0 0 0 0 0 0 0
0 0 0 0 0 0 0 0 0 0 0 0 0 0 0 0 0 0 0 0 0 0 0 0 0 0 0 0 0 0 0 0 0 0 0 0 0 0 0 0 0 0 0 0
0 0 0 0 0 0 0 0 0 0 0 0 0 0 0 0 0 0 0 0 0 0 0 0 0 0 0 0 0 0 0 0 0 0 0 0 0 -1 0 0 0 -2 -4 -2
0 0 0 0 0 0 0 0 0 0 0 0 0 0 0 0 0 0 0 0 0 0 0 0 0 0 0 0 0 0 0 0 0 0 0 0 0 0 0 0 0 0 -1 -1
0 0 0 0 0 0 0 0 0 0 0 0 0 0 0 0 0 0 0 0 0 0 0 0 0 0 0 0 0 0 0 0 0 0 0 0 0 0 0 0 0 0 0 -4
0 0 0 0 0 0 0 0 0 0 0 0 0 0 0 0 0 0 0 0 0 0 0 0 0 0 0 0 0 0 0 0 0 0 -2 0 -1 0 0 0 0 0 0 0
0 0 0 0 0 0 0 0 0 0 0 0 0 0 0 0 0 0 0 0 0 0 0 0 0 0 0 0 0 0 0 0 0 0 0 -1 0 0 0 0 0 0 0 -2
0 0 0 0 0 0 0 0 0 0 0 0 0 0 0 0 0 0 0 0 0 0 0 0 0 0 0 0 0 0 0 0 0 0 0 0 0 0 0 0 0 0 0 0
0 0 0 0 0 0 0 0 0 0 0 0 0 0 0 0 0 0 0 0 0 0 0 0 0 0 0 0 0 0 0 0 0 0 0 0 0 0 0 0 0 0 0 -1
0 0 0 0 0 0 0 0 0 0 0 0 0 0 0 0 0 0 0 0 0 0 0 0 0 0 0 0 0 0 0 0 0 0 0 -1 0 0 0 0 0 0 0 0
0 0 0 0 0 0 0 0 0 0 0 0 0 0 0 0 0 0 0 0 0 0 0 0 0 0 0 0 0 0 0 0 0 0 0 0 0 0 0 0 0 0 0 0
0 0 0 0 0 0 0 0 0 0 0 0 0 0 0 0 0 0 0 0 0 0 0 0 0 0 0 0 0 0 0 0 0 0 0 0 0 0 0 0 0 0 0 0
0 0 0 0 0 0 0 0 0 0 0 0 0 0 0 0 0 0 0 0 0 0 0 0 0 0 0 0 0 0 0 0 0 0 0 0 0 0 0 0 0 0 0 0
0 0 0 0 0 0 0 0 0 0 0 0 0 0 0 0 0 0 0 0 0 0 0 0 0 0 0 0 0 0 0 0 0 0 0 0 0 0 0 0 0 0 0 0
0 0 0 0 0 0 0 0 0 0 0 0 0 0 0 0 0 0 0 0 0 0 0 0 0 0 0 0 0 0 0 0 0 0 0 0 0 0 0 0 0 0 0 0
0 0 0 0 0 0 0 0 0 0 0 0 0 0 0 0 0 0 0 0 0 0 0 0 0 0 0 0 0 0 0 0 0 0 0 0 0 0 0 0 0 0 0 0
0 0 0 0 0 0 0 0 0 0 0 0 0 0 0 0 0 0 0 0 0 0 0 0 0 0 0 0 0 0 0 0 0 0 0 0 0 0 0 0 0 0 0 0
0 0 0 0 0 0 0 0 0 0 0 0 0 0 0 0 0 0 0 0 0 0 0 0 0 0 0 0 0 0 0 0 0 0 0 0 0 0 0 0 0 0 0 0
0 0 0 0 0 0 0 0 0 0 0 0 0 0 0 0 0 0 0 0 0 0 0 0 0 0 0 0 0 0 0 0 0 0 0 0 0 0 0 0 0 0 0 0
0 0 0 0 0 0 0 0 0 0 0 0 0 0 0 0 0 0 0 0 0 0 0 0 0 0 0 0 0 0 0 0 0 0 0 0 0 0 0 0 0 0 0 0
0 0 0 0 0 0 0 0 0 0 0 0 0 0 0 0 0 0 0 0 0 0 0 0 0 0 0 0 0 0 0 0 0 0 0 0 0 0 0 0 0 0 0 0
0 0 0 0 0 0 0 0 0 0 0 0 0 0 0 0 0 0 0 0 0 0 0 0 0 0 0 0 0 0 0 0 0 0 0 0 0 0 0 0 0 0 0 0
0 0 0 0 0 0 0 0 0 0 0 0 0 0 0 0 0 0 0 0 0 0 0 0 0 0 0 0 0 0 0 0 0 0 0 0 0 0 0 0 0 0 0 0
0 0 0 0 0 0 0 0 0 0 0 0 0 0 0 0 0 0 0 0 0 0 0 0 0 0 0 0 0 0 0 0 0 0 0 0 0 0 0 0 0 0 0 0
0 0 0 0 0 0 0 0 0 0 0 0 0 0 0 0 0 0 0 0 0 0 0 0 0 0 0 0 0 0 0 0 0 0 0 0 0 0 0 0 0 0 0 0
0 0 0 0 0 0 0 0 0 0 0 0 0 0 0 0 0 0 0 0 0 0 0 0 0 0 0 0 0 0 0 0 0 0 0 0 0 0 0 0 0 0 -1 -1
Wind_Speed
23 24 27 22 22 22 24 27 29 29 29 32 30 35 39 38 32 27 22 18 17 21 24 28 32 38 44 46 47 47 47 47 45 44 43 43 44 44 45 46 47 48 48 49
26 28 21 20 21 23 25 28 30 29 26 35 37 41 37 29 24 22 19 17 18 23 28 31 37 42 47 48 46 44 43 45 44 43 41 41 42 42 44 46 48 48 48 48
27 26 21 22 24 26 26 27 28 30 35 30 37 34 25 26 23 21 17 17 20 23 28 36 42 45 46 47 46 46 45 44 44 42 41 41 40 39 42 45 46 45 45 46
25 21 21 23 24 23 28 22 26 33 36 36 31 36 33 26 24 20 17 18 21 24 30 37 44 45 45 44 43 44 44 44 42 39 40 40 42 41 41 46 47 48 47 47
26 22 21 23 23 19 23 26 29 29 29 30 27 29 28 26 26 23 18 18 21 24 30 38 41 41 44 44 43 42 42 42 40 38 37 41 39 41 41 43 48 48 47 49
22 21 19 20 20 20 24 26 28 26 27 30 24 27 32 26 23 25 24 18 20 26 35 36 37 41 44 41 39 36 36 39 39 34 36 38 41 41 41 43 47 47 47 45
23 20 19 18 20 21 24 27 31 30 30 29 24 30 22 22 22 21 23 21 21 27 33 39 40 43 41 40 37 37 39 41 36 34 32 37 37 36 37 40 44 45 46 40
23 24 17 18 19 22 24 23 26 33 33 33 28 25 25 22 21 21 20 19 20 27 36 35 37 38 37 37 37 40 41 40 35 31 33 36 33 31 32 37 40 41 41 40
21 21 18 19 19 21 21 24 20 27 27 32 25 24 30 22 22 22 19 18 17 27 35 33 34 36 36 36 36 37 37 35 31 30 34 30 27 23 26 35 36 35 33 29
19 24 20 20 18 21 20 17 26 25 30 32 29 30 24 26 26 25 22 17 16 26 32 34 32 36 34 32 32 33 32 30 27 27 33 22 11 15 28 24 20 33 30 26
18 20 23 21 20 21 21 22 21 21 21 29 36 29 18 22 25 27 26 24 22 27 29 31 30 34 32 30 30 33 32 29 25 26 33 16 5 30 31 22 27 25 29 26
18 22 26 25 20 18 19 20 17 23 26 23 28 25 22 18 23 26 27 25 26 26 29 28 30 33 32 31 33 35 33 26 21 27 32 22 16 28 26 26 27 27 26 24
16 23 29 28 25 21 21 19 18 21 23 25 29 28 23 25 30 30 26 24 31 26 28 27 30 32 32 32 35 34 33 23 18 25 30 29 23 22 24 25 25 24 22 19
17 21 24 28 30 26 27 25 20 19 26 28 23 27 24 22 25 24 24 22 32 26 25 26 28 32 29 30 33 33 31 23 21 28 26 25 24 21 21 22 22 19 17 17
20 28 28 28 29 28 29 28 24 22 23 26 25 25 23 21 19 18 18 21 30 26 23 25 27 29 28 30 30 31 30 24 20 18 19 20 20 20 19 19 17 16 15 16
20 29 30 35 32 32 36 31 27 23 23 25 24 24 27 22 15 17 20 22 24 22 20 24 24 27 28 28 28 28 27 16 11 9 13 16 17 17 15 14 13 13 13 13
21 25 30 36 32 38 40 25 21 21 19 17 17 14 12 17 21 24 20 19 18 18 18 22 21 23 25 27 25 27 24 19 6 5 9 12 14 14 12 11 10 10 11 11
23 24 27 35 35 38 23 24 25 23 21 14 15 14 13 12 21 13 13 14 13 14 16 21 20 22 25 24 22 23 26 22 15 9 3 3 5 9 10 9 8 8 9 8
20 22 26 30 31 37 33 20 24 26 32 18 14 13 11 20 25 26 22 19 12 14 16 19 20 19 22 21 21 22 24 24 14 9 9 8 5 5 4 9 7 5 5 4
16 18 20 24 29 30 21 23 21 21 32 25 21 20 15 18 26 28 23 21 14 14 17 18 19 19 21 20 20 21 22 22 22 9 9 11 16 15 9 12 1 4 4 7
21 22 19 22 26 24 19 19 19 27 32 26 25 22 17 19 21 25 22 21 14 15 14 16 18 18 19 19 18 18 20 22 19 18 21 23 15 8 6 8 7 4 4 7
24 21 22 20 24 31 12 17 18 26 28 29 33 27 22 18 14 22 21 20 12 12 12 12 15 16 17 16 17 16 19 17 16 20 21 19 19 18 14 13 14 10 7 7
28 22 23 19 23 19 16 22 20 27 29 30 30 29 26 32 22 18 19 17 6 8 9 9 11 14 13 12 15 16 14 13 14 17 18 19 20 19 16 14 12 15 25 26
28 22 29 30 22 23 27 25 22 23 18 17 18 23 25 17 22 15 19 18 4 4 5 5 8 10 13 15 14 15 15 14 17 18 19 21 23 23 23 23 23 25 24 25
29 22 28 32 29 39 31 25 18 21 19 19 21 24 18 13 11 17 16 25 5 3 4 3 9 10 19 18 17 17 17 18 19 21 22 23 24 26 26 26 24 25 23 23
27 28 30 31 42 38 42 44 31 27 22 24 22 26 20 17 11 21 22 24 8 5 4 7 14 18 24 22 20 19 19 20 22 23 23 24 25 25 26 27 28 29 28 28
Wind_Direction
336 330 324 327 332 331 327 323 320 322 326 324 324 322 321 322 325 326 327 326 325 327 329 330 329 328 327 326 326 322 320 317 316 314 310 307 303 300 296 289 284 281 277 270
330 324 331 333 331 328 326 323 322 326 331 326 324 320 323 330 333 335 334 333 331 329 329 330 328 327 326 327 328 326 323 319 316 313 311 307 306 302 298 291 285 281 277 271
326 327 330 327 325 324 325 323 325 324 326 330 328 328 337 340 340 340 340 337 335 334 333 327 325 327 330 330 330 325 323 321 318 313 310 308 306 304 299 291 285 281 278 272
329 335 329 324 323 327 323 331 328 325 327 325 337 325 332 339 339 342 339 336 335 336 334 329 328 331 334 335 333 329 326 324 321 316 310 306 304 304 299 290 285 279 276 272
325 329 328 324 325 331 329 329 327 329 330 330 333 331 337 339 335 337 335 334 336 339 336 332 334 336 336 338 336 334 331 327 323 316 311 307 306 301 299 295 285 281 276 271
325 332 332 330 331 329 328 330 330 334 333 328 335 337 334 339 343 344 346 338 338 338 334 336 338 339 340 340 341 340 338 332 325 321 315 308 305 303 301 295 286 280 278 271
330 329 331 331 330 331 332 332 327 326 329 328 338 332 331 339 339 340 341 341 340 339 338 338 340 341 343 344 344 343 340 334 330 323 320 311 311 309 304 298 286 280 275 269
326 325 336 336 331 331 332 333 330 323 325 325 332 330 343 349 347 344 343 342 341 340 340 342 343 346 347 348 346 343 340 337 335 330 322 315 317 315 309 299 287 283 275 267
330 329 336 334 335 336 335 330 340 328 328 325 331 335 335 351 353 351 345 342 339 342 344 345 346 348 349 349 350 348 345 342 339 334 322 325 327 328 323 288 284 283 280 272
330 324 331 332 339 338 332 343 328 331 326 325 328 330 336 348 350 351 348 338 333 344 346 347 349 350 351 352 353 352 350 347 344 338 321 341 340 331 256 246 235 275 276 271
331 326 327 332 329 329 332 328 332 332 328 325 326 332 346 342 347 349 350 346 343 344 347 348 351 352 354 355 357 356 356 352 350 341 313 353 244 267 265 255 248 237 261 264
327 323 317 322 335 339 333 329 330 322 321 322 325 317 337 340 348 348 347 345 341 344 348 351 354 356 357 359 359 359 360 0 0 343 309 341 244 273 264 256 259 252 243 256
331 320 319 321 330 335 327 330 325 323 320 311 315 321 348 342 340 339 341 342 342 346 351 355 357 358 1 2 2 3 4 8 11 352 304 301 269 263 271 274 273 269 261 275
328 316 313 312 317 325 321 321 317 310 311 310 288 287 283 291 329 335 342 344 341 349 355 358 1 2 6 8 8 9 11 17 18 332 295 288 283 269 268 281 290 282 284 277
320 311 313 312 314 315 313 311 308 293 290 296 289 302 288 288 308 321 333 346 345 352 359 2 5 6 12 14 17 17 20 27 34 290 290 286 280 283 280 304 297 293 293 276
318 312 316 313 317 317 315 315 308 296 291 288 286 287 263 272 307 336 346 353 353 356 3 7 12 12 17 20 25 26 32 48 59 278 288 296 297 302 286 296 294 295 284 271
316 315 317 312 320 318 317 330 328 324 325 316 303 285 314 331 340 346 350 356 358 2 8 11 17 20 24 26 34 37 43 53 73 284 289 299 314 318 301 285 289 289 284 267
310 313 315 312 318 312 330 332 327 321 323 308 297 283 304 314 336 336 347 356 4 9 15 15 23 26 26 33 42 46 49 59 75 94 130 210 257 302 313 312 295 288 292 286
300 307 311 314 314 314 322 340 337 332 329 336 312 291 296 330 334 345 359 3 13 16 18 21 25 34 36 44 48 54 59 65 79 89 102 118 159 194 247 327 314 281 285 290
307 307 306 316 316 318 334 334 339 344 330 347 350 346 338 337 328 338 355 358 12 13 14 23 25 37 41 52 62 69 72 75 79 87 103 111 112 122 145 146 244 330 347 6
305 303 289 303 309 316 322 321 339 328 327 338 338 334 330 323 326 335 346 351 5 2 13 25 28 39 47 59 75 84 81 84 89 94 97 98 112 119 130 139 141 132 31 22
292 295 299 303 306 311 330 335 324 327 328 328 323 325 321 316 313 325 334 337 356 354 6 29 29 47 53 81 84 103 98 106 107 101 105 110 113 116 123 126 127 123 110 56
288 286 295 287 298 315 313 314 315 321 322 323 322 321 321 309 309 309 316 322 334 345 357 26 44 41 78 142 128 123 135 139 130 122 118 117 115 119 125 129 131 125 116 113
288 285 292 299 288 286 297 297 300 308 296 281 308 314 319 310 310 298 301 306 294 320 345 38 62 81 163 185 169 157 153 149 134 127 123 119 115 115 117 117 117 115 116 114
284 288 292 292 257 301 297 295 274 305 304 307 315 313 304 295 277 231 292 288 253 248 312 118 133 119 191 196 188 173 162 148 138 130 123 121 118 114 111 111 113 113 114 116
279 280 285 284 261 297 298 296 307 309 305 311 309 312 303 297 264 281 289 284 279 239 264 163 163 167 209 206 198 184 168 156 139 129 124 116 114 113 108 104 99 86 87 88